N0JVW-13 Weather Reports


Display with metric or nautical units.
time (UTC)temp
F
wind
direction
speed
MPH
gust
MPH
rain 1hr
in
rain 24hr
in
rain mn
in
humidity
%
barometer
mb
20260507230511 67 156 0.0 4.0 0.00 0.00 0.00 48 1010.7
20260507230107 67 216 1.0 4.0 0.00 0.00 0.00 48 1010.7
20260507225528 67 157 0.0 6.0 0.00 0.00 0.00 50 1010.8
20260507225006 67 291 2.0 6.0 0.00 0.00 0.00 48 1010.7
20260507224551 67 166 0.0 3.0 0.00 0.00 0.00 49 1010.8
20260507224022 67 149 0.0 3.0 0.00 0.00 0.00 47 1010.8
20260507223603 67 295 0.0 2.0 0.00 0.00 0.00 48 1010.8
20260507223039 67 176 0.0 3.0 0.00 0.00 0.00 50 1010.8
20260507222519 67 176 0.0 4.0 0.00 0.00 0.00 47 1010.9
20260507222058 67 153 0.0 4.0 0.00 0.00 0.00 50 1010.9
20260507221539 67 142 0.0 3.0 0.00 0.00 0.00 49 1010.9
20260507221008 67 181 1.0 3.0 0.00 0.00 0.00 48 1011.0
20260507220548 67 236 0.0 3.0 0.00 0.00 0.00 49 1011.0
20260507220023 67 156 0.0 6.0 0.00 0.00 0.00 51 1011.0
20260507215606 67 216 2.0 6.0 0.00 0.00 0.00 47 1011.1
20260507215042 67 248 0.0 4.0 0.00 0.00 0.00 49 1011.2
20260507214517 67 162 0.0 4.0 0.00 0.00 0.00 51 1011.2
20260507214058 67 328 0.0 3.0 0.00 0.00 0.00 50 1011.3
20260507213535 67 265 0.0 3.0 0.00 0.00 0.00 48 1011.3
20260507213016 67 266 0.0 5.0 0.00 0.00 0.00 49 1011.4
20260507212551 67 117 1.0 5.0 0.00 0.00 0.00 49 1011.5
20260507212026 67 274 0.0 3.0 0.00 0.00 0.00 49 1011.5
20260507211502 67 283 0.0 3.0 0.00 0.00 0.00 50 1011.6
20260507211042 67 323 0.0 3.0 0.00 0.00 0.00 51 1011.7
20260507210522 67 248 1.0 6.0 0.00 0.00 0.00 51 1011.9
20260507210110 67 269 2.0 6.0 0.00 0.00 0.00 50 1012.1
20260507205534 67 262 1.0 3.0 0.00 0.00 0.00 50 1012.0
20260507205011 66 191 0.0 8.0 0.00 0.00 0.00 52 1012.1
20260507204551 66 169 1.0 8.0 0.00 0.00 0.00 51 1012.3
20260507204026 66 152 0.0 5.0 0.00 0.00 0.00 53 1012.4
20260507203504 66 270 1.0 6.0 0.00 0.00 0.00 52 1012.3
20260507203109 66 150 1.0 6.0 0.00 0.00 0.00 52 1012.5
20260507202522 66 144 0.0 9.0 0.00 0.00 0.00 52 1012.7
20260507202101 66 122 2.0 9.0 0.00 0.00 0.00 52 1012.5
20260507201537 66 158 0.0 4.0 0.00 0.00 0.00 54 1012.7
20260507201013 66 151 1.0 4.0 0.00 0.00 0.00 50 1012.7
20260507200558 66 250 1.0 5.0 0.00 0.00 0.00 50 1012.8
20260507200031 66 172 2.0 5.0 0.00 0.00 0.00 51 1012.8
20260507195507 66 312 0.0 7.0 0.00 0.00 0.00 53 1013.0
20260507195047 66 183 0.0 7.0 0.00 0.00 0.00 53 1013.0
20260507194528 66 164 0.0 4.0 0.00 0.00 0.00 52 1013.0
20260507194106 66 300 1.0 4.0 0.00 0.00 0.00 52 1013.2
20260507193541 66 275 0.0 4.0 0.00 0.00 0.00 51 1013.2
20260507193019 66 317 1.0 3.0 0.00 0.00 0.00 51 1013.2
20260507192558 65 286 1.0 3.0 0.00 0.00 0.00 52 1013.3
20260507192034 65 308 1.0 4.0 0.00 0.00 0.00 52 1013.3
20260507191514 65 311 0.0 4.0 0.00 0.00 0.00 53 1013.5
20260507191053 65 299 1.0 4.0 0.00 0.00 0.00 53 1013.5
20260507190527 65 317 2.0 4.0 0.00 0.00 0.00 53 1013.5
20260507190008 64 233 0.0 3.0 0.00 0.00 0.00 58 1013.8
20260507185543 63 162 0.0 5.0 0.00 0.00 0.00 57 1014.0
20260507185019 63 278 2.0 5.0 0.00 0.00 0.00 54 1014.1
20260507184600 63 286 0.0 5.0 0.00 0.00 0.00 56 1014.0
20260507184036 64 145 0.0 7.0 0.00 0.00 0.00 54 1014.2
20260507183510 64 282 0.0 4.0 0.00 0.00 0.00 53 1014.3
20260507183052 64 199 0.0 4.0 0.00 0.00 0.00 55 1014.3
20260507182527 64 262 1.0 4.0 0.00 0.00 0.00 55 1014.3
20260507182004 63 274 0.0 3.0 0.00 0.00 0.00 55 1014.5
20260507181543 63 285 1.0 3.0 0.00 0.00 0.00 54 1014.5
20260507181020 63 314 0.0 3.0 0.00 0.00 0.00 55 1014.6
20260507180559 63 243 1.0 6.0 0.00 0.00 0.00 54 1014.7
20260507180038 63 181 0.0 6.0 0.00 0.00 0.00 58 1014.7
20260507175509 63 298 0.0 3.0 0.00 0.00 0.00 56 1014.8
20260507175049 63 304 0.0 3.0 0.00 0.00 0.00 57 1014.8
20260507174534 63 284 0.0 3.0 0.00 0.00 0.00 56 1014.9
20260507174104 63 260 1.0 4.0 0.00 0.00 0.00 56 1014.8
20260507173542 63 196 1.0 4.0 0.00 0.00 0.00 60 1014.9
20260507173044 63 161 0.0 3.0 0.00 0.00 0.00 58 1014.9
20260507172557 63 47 0.0 3.0 0.00 0.00 0.00 55 1015.1
20260507172033 63 224 0.0 3.0 0.00 0.00 0.00 57 1015.2
20260507171518 62 303 0.0 3.0 0.00 0.00 0.00 56 1015.2
20260507171051 62 257 1.0 4.0 0.00 0.00 0.00 54 1015.3
20260507170526 63 274 1.0 4.0 0.00 0.00 0.00 56 1015.4
20260507170003 62 254 0.0 4.0 0.00 0.00 0.00 56 1015.5
20260507165543 62 309 0.0 4.0 0.00 0.00 0.00 57 1015.6
20260507165019 61 269 1.0 5.0 0.00 0.00 0.00 57 1015.6
20260507164602 61 284 2.0 5.0 0.00 0.00 0.00 55 1015.7
20260507164036 61 282 0.0 3.0 0.00 0.00 0.00 58 1015.8
20260507163516 61 218 0.0 2.0 0.00 0.00 0.00 58 1015.8
20260507163054 61 259 0.0 4.0 0.00 0.00 0.00 57 1015.8
20260507162535 61 271 0.0 4.0 0.00 0.00 0.00 56 1015.9
20260507162008 61 169 0.0 4.0 0.00 0.00 0.00 58 1015.9
20260507161552 61 311 0.0 4.0 0.00 0.00 0.00 59 1015.8
20260507161025 61 276 0.0 2.0 0.00 0.00 0.00 59 1015.9
20260507160502 61 318 0.0 4.0 0.00 0.00 0.00 58 1016.0
20260507160049 61 323 0.0 4.0 0.00 0.00 0.00 58 1016.0
20260507155518 61 281 0.0 4.0 0.00 0.00 0.00 58 1016.0
20260507155059 61 269 0.0 4.0 0.00 0.00 0.00 57 1016.2
20260507154537 60 271 0.0 3.0 0.00 0.00 0.00 59 1016.2
20260507154012 60 250 0.0 3.0 0.00 0.00 0.00 59 1016.2
20260507153552 60 136 0.0 3.0 0.00 0.00 0.00 60 1016.1
20260507153028 59 212 0.0 3.0 0.00 0.00 0.00 59 1016.2
20260507152504 59 275 0.0 3.0 0.00 0.00 0.00 60 1016.3
20260507152045 59 296 1.0 3.0 0.00 0.00 0.00 63 1016.4
20260507151520 59 306 0.0 3.0 0.00 0.00 0.00 61 1016.4
20260507151101 59 275 1.0 3.0 0.00 0.00 0.00 60 1016.5
20260507150537 59 178 0.0 3.0 0.00 0.00 0.00 61 1016.5
20260507150023 59 278 0.0 3.0 0.00 0.00 0.00 61 1016.5
20260507145556 59 290 0.0 4.0 0.00 0.00 0.00 62 1016.5
20260507145030 59 169 1.0 4.0 0.00 0.00 0.00 64 1016.5
20260507144506 58 119 0.0 3.0 0.00 0.00 0.00 68 1016.6
20260507144047 58 155 0.0 3.0 0.00 0.00 0.00 68 1016.6
20260507143524 58 157 0.0 3.0 0.00 0.00 0.00 66 1016.6
20260507143105 57 238 1.0 6.0 0.00 0.00 0.00 67 1016.5
20260507142540 57 304 0.0 6.0 0.00 0.00 0.00 67 1016.5
20260507142025 57 286 0.0 2.0 0.00 0.00 0.00 67 1016.6
20260507141602 56 286 0.0 3.0 0.00 0.00 0.00 68 1016.6
20260507141032 56 162 0.0 3.0 0.00 0.00 0.00 69 1016.7
20260507140508 56 150 0.0 1.0 0.00 0.00 0.00 68 1016.6
20260507140050 55 266 0.0 3.0 0.00 0.00 0.00 69 1016.6
20260507135525 55 171 0.0 3.0 0.00 0.00 0.00 70 1016.6
20260507135002 55 153 0.0 1.0 0.00 0.00 0.00 70 1016.7
20260507134544 54 275 0.0 0.0 0.00 0.00 0.00 70 1016.7
20260507134018 54 275 0.0 1.0 0.00 0.00 0.00 70 1016.7
20260507133559 54 275 0.0 1.0 0.00 0.00 0.00 70 1016.6
20260507133105 53 275 0.0 1.0 0.00 0.00 0.00 71 1016.7
20260507132516 53 275 0.0 1.0 0.00 0.00 0.00 71 1016.7
20260507132051 52 275 0.0 1.0 0.00 0.00 0.00 72 1016.8
20260507131529 52 275 0.0 1.0 0.00 0.00 0.00 71 1016.9
20260507131004 51 15 0.0 1.0 0.00 0.00 0.00 71 1017.0
20260507130546 51 15 0.0 0.0 0.00 0.00 0.00 72 1017.0
20260507130021 50 14 0.0 1.0 0.00 0.00 0.00 72 1017.1
20260507125601 50 15 0.0 1.0 0.00 0.00 0.00 72 1017.1
20260507125038 49 14 0.0 1.0 0.00 0.00 0.00 73 1017.1
20260507124514 49 14 0.0 1.0 0.00 0.00 0.00 73 1017.1
20260507124057 48 15 0.0 0.0 0.00 0.00 0.00 73 1017.0
20260507123536 48 14 0.0 0.0 0.00 0.00 0.00 74 1017.0
20260507123007 47 15 0.0 0.0 0.00 0.00 0.00 74 1017.0
20260507122549 47 14 0.0 0.0 0.00 0.00 0.00 74 1017.1
20260507122024 46 14 0.0 0.0 0.00 0.00 0.00 75 1017.1
20260507121605 46 14 0.0 0.0 0.00 0.00 0.00 76 1017.1
20260507121040 45 15 0.0 0.0 0.00 0.00 0.00 76 1017.0
20260507120516 45 14 0.0 0.0 0.00 0.00 0.00 77 1017.0
20260507115534 44 14 0.0 0.0 0.00 0.00 0.00 77 1016.9
20260507115010 44 14 0.0 0.0 0.00 0.00 0.00 77 1016.9
20260507114600 44 14 0.0 0.0 0.00 0.00 0.00 77 1016.9
20260507114026 44 14 0.0 0.0 0.00 0.00 0.00 77 1016.8
20260507113501 44 14 0.0 0.0 0.00 0.00 0.00 77 1016.7
20260507113043 44 14 0.0 0.0 0.00 0.00 0.00 77 1016.7
20260507112521 43 14 0.0 0.0 0.00 0.00 0.00 77 1016.7
20260507112102 43 14 0.0 0.0 0.00 0.00 0.00 77 1016.7
20260507111537 43 14 0.0 0.0 0.00 0.00 0.00 77 1016.7
20260507111012 43 14 0.0 0.0 0.00 0.00 0.00 77 1016.7
20260507110558 43 14 0.0 0.0 0.00 0.00 0.00 76 1016.7
20260507110038 44 15 0.0 0.0 0.00 0.00 0.00 76 1016.7
20260507105509 44 14 0.0 0.0 0.00 0.00 0.00 76 1016.7
20260507105049 44 14 0.0 0.0 0.00 0.00 0.00 76 1016.7
20260507104523 44 14 0.0 0.0 0.00 0.00 0.00 76 1016.7
20260507104103 44 14 0.0 0.0 0.00 0.00 0.00 75 1016.7
20260507103539 44 14 0.0 0.0 0.00 0.00 0.00 75 1016.7
20260507103012 44 15 0.0 0.0 0.00 0.00 0.00 75 1016.7
20260507102552 44 14 0.0 0.0 0.00 0.00 0.00 74 1016.7
20260507102028 44 15 0.0 0.0 0.00 0.00 0.00 74 1016.7
20260507101504 44 14 0.0 0.0 0.00 0.00 0.00 74 1016.7
20260507101044 44 14 0.0 0.0 0.00 0.00 0.00 74 1016.8
20260507100521 44 15 0.0 0.0 0.00 0.00 0.00 74 1016.8
20260507095547 44 14 0.0 0.0 0.00 0.00 0.00 74 1016.8
20260507095023 44 14 0.0 0.0 0.00 0.00 0.00 74 1016.9
20260507094603 44 14 0.0 0.0 0.00 0.00 0.00 74 1016.9
20260507094038 44 14 0.0 0.0 0.00 0.00 0.00 74 1016.9
20260507093515 44 14 0.0 0.0 0.00 0.00 0.00 74 1017.0
20260507093052 44 14 0.0 0.0 0.00 0.00 0.00 74 1017.0
20260507092528 44 14 0.0 0.0 0.00 0.00 0.00 74 1017.0
20260507092005 44 14 0.0 0.0 0.00 0.00 0.00 74 1017.0
20260507091545 44 14 0.0 0.0 0.00 0.00 0.00 74 1017.0
20260507091022 44 14 0.0 0.0 0.00 0.00 0.00 74 1017.0
20260507090603 44 14 0.0 0.0 0.00 0.00 0.00 74 1017.0
20260507090042 44 14 0.0 0.0 0.00 0.00 0.00 74 1017.0
20260507085515 44 14 0.0 0.0 0.00 0.00 0.00 74 1017.0
20260507085058 44 14 0.0 0.0 0.00 0.00 0.00 74 1017.0
20260507084538 44 14 0.0 0.0 0.00 0.00 0.00 73 1017.0
20260507084009 44 14 0.0 0.0 0.00 0.00 0.00 73 1017.0
20260507083551 45 15 0.0 0.0 0.00 0.00 0.00 73 1016.9
20260507083026 45 14 0.0 0.0 0.00 0.00 0.00 73 1017.0
20260507082502 45 14 0.0 0.0 0.00 0.00 0.00 73 1017.0
20260507082046 45 14 0.0 0.0 0.00 0.00 0.00 73 1017.0
20260507081520 45 15 0.0 0.0 0.00 0.00 0.00 72 1017.0
20260507081104 45 14 0.0 0.0 0.00 0.00 0.00 72 1016.9
20260507080538 45 14 0.0 0.0 0.00 0.00 0.00 72 1017.0
20260507080014 45 14 0.0 0.0 0.00 0.00 0.00 71 1016.9
20260507075555 46 14 0.0 0.0 0.00 0.00 0.00 71 1017.0
20260507075030 46 14 0.0 0.0 0.00 0.00 0.00 71 1016.9
20260507074507 46 15 0.0 0.0 0.00 0.00 0.00 70 1017.0
20260507074047 46 14 0.0 0.0 0.00 0.00 0.00 70 1017.0
20260507073525 46 14 0.0 0.0 0.00 0.00 0.00 70 1017.1
20260507073110 46 14 0.0 0.0 0.00 0.00 0.00 70 1017.2
20260507072540 46 14 0.0 0.0 0.00 0.00 0.00 70 1017.3
20260507072016 46 14 0.0 0.0 0.00 0.00 0.00 69 1017.3
20260507071556 46 14 0.0 0.0 0.00 0.00 0.00 70 1017.3
20260507071032 46 14 0.0 0.0 0.00 0.01 0.00 69 1017.4
20260507070508 46 14 0.0 0.0 0.00 0.01 0.00 70 1017.4
20260507070057 46 14 0.0 0.0 0.00 0.01 0.00 71 1017.4
20260507065524 46 14 0.0 0.0 0.00 0.01 0.00 71 1017.5
20260507065105 46 14 0.0 0.0 0.00 0.01 0.00 71 1017.5
20260507064547 46 14 0.0 0.0 0.00 0.01 0.00 72 1017.6
20260507064017 46 14 0.0 0.0 0.00 0.01 0.00 73 1017.6
20260507063558 46 14 0.0 0.0 0.00 0.01 0.00 73 1017.6
20260507063036 46 14 0.0 0.0 0.00 0.01 0.00 74 1017.7
20260507062509 46 14 0.0 0.0 0.00 0.01 0.00 75 1017.7
20260507062050 46 14 0.0 0.0 0.00 0.01 0.00 75 1017.6
20260507061526 46 14 0.0 0.0 0.00 0.01 0.00 75 1017.7
20260507061003 45 14 0.0 0.0 0.00 0.01 0.00 76 1017.7
20260507060542 45 15 0.0 0.0 0.00 0.01 0.00 76 1017.7
20260507060019 45 14 0.0 0.0 0.00 0.01 0.00 76 1017.8
20260507055556 45 14 0.0 0.0 0.00 0.01 0.00 76 1017.8
20260507055032 45 14 0.0 0.0 0.00 0.01 0.00 76 1017.8
20260507054508 45 14 0.0 0.0 0.00 0.01 0.00 76 1017.7
20260507054045 45 14 0.0 0.0 0.00 0.01 0.00 76 1017.8
20260507053522 45 15 0.0 0.0 0.00 0.01 0.00 76 1017.8
20260507053126 45 14 0.0 0.0 0.00 0.01 0.00 76 1017.8
20260507052540 46 14 0.0 0.0 0.00 0.01 0.00 76 1017.7
20260507052013 46 14 0.0 0.0 0.00 0.01 0.00 76 1017.8
20260507051554 46 15 0.0 0.0 0.00 0.01 0.00 76 1017.8
20260507051029 46 14 0.0 0.0 0.00 0.01 0.01 76 1017.8
20260507050505 46 14 0.0 0.0 0.00 0.01 0.01 76 1017.8
20260507050046 46 14 0.0 0.0 0.00 0.01 0.01 76 1017.8
20260507045523 46 14 0.0 0.0 0.00 0.01 0.01 76 1017.8
20260507045103 46 15 0.0 0.0 0.00 0.01 0.01 76 1017.8
20260507044555 46 14 0.0 0.0 0.00 0.01 0.01 75 1017.7
20260507044015 46 14 0.0 0.0 0.00 0.01 0.01 75 1017.7
20260507043555 46 14 0.0 0.0 0.00 0.01 0.01 75 1017.7
20260507043032 46 14 0.0 0.0 0.00 0.01 0.01 75 1017.8
20260507042508 46 14 0.0 0.0 0.00 0.01 0.01 75 1017.7
20260507042049 46 14 0.0 0.0 0.00 0.01 0.01 75 1017.9
20260507041526 46 14 0.0 0.0 0.00 0.01 0.01 75 1017.9
20260507041001 46 14 0.0 0.0 0.00 0.01 0.01 75 1018.1
20260507040542 47 15 0.0 0.0 0.00 0.01 0.01 75 1018.2
20260507040018 47 14 0.0 0.0 0.00 0.01 0.01 74 1018.1
20260507035559 47 15 0.0 0.0 0.00 0.01 0.01 74 1018.1
20260507035035 47 14 0.0 0.0 0.00 0.01 0.01 74 1018.0
20260507034510 47 14 0.0 0.0 0.00 0.01 0.01 73 1017.9
20260507034052 47 15 0.0 0.0 0.00 0.01 0.01 72 1017.9
20260507033529 47 14 0.0 0.0 0.00 0.01 0.01 71 1017.9
20260507033004 47 15 0.0 0.0 0.00 0.01 0.01 71 1017.9
20260507032545 48 14 0.0 0.0 0.00 0.01 0.01 70 1017.9
20260507032024 48 14 0.0 0.0 0.00 0.01 0.01 70 1017.9
20260507031604 48 14 0.0 0.0 0.00 0.01 0.01 68 1017.9
20260507031039 48 14 0.0 0.0 0.00 0.01 0.01 67 1017.9
20260507030513 48 15 0.0 0.0 0.00 0.01 0.01 66 1017.9
20260507030107 48 14 0.0 0.0 0.00 0.01 0.01 65 1017.9
20260507025530 48 15 0.0 0.0 0.00 0.01 0.01 64 1017.8
20260507025005 48 15 0.0 0.0 0.00 0.01 0.01 62 1017.9
20260507024605 49 14 0.0 0.0 0.00 0.01 0.01 62 1017.8
20260507024022 49 14 0.0 0.0 0.00 0.01 0.01 61 1017.8
20260507023605 49 14 0.0 0.0 0.00 0.01 0.01 60 1017.7
20260507023039 49 14 0.0 0.0 0.00 0.01 0.01 59 1017.7
20260507022515 50 15 0.0 0.0 0.00 0.01 0.01 59 1017.7
20260507022056 50 14 0.0 0.0 0.00 0.01 0.01 58 1017.6
20260507021536 50 14 0.0 0.0 0.00 0.01 0.01 57 1017.6
20260507021009 50 15 0.0 0.0 0.00 0.01 0.01 56 1017.6
20260507020550 51 15 0.0 0.0 0.00 0.01 0.01 57 1017.6
20260507020026 51 15 0.0 0.0 0.00 0.01 0.01 56 1017.6
20260507015605 51 15 0.0 0.0 0.00 0.01 0.01 55 1017.5
20260507015046 52 14 0.0 0.0 0.00 0.01 0.01 54 1017.5
20260507014521 52 14 0.0 0.0 0.00 0.01 0.01 52 1017.4
20260507014100 53 14 0.0 0.0 0.00 0.01 0.01 52 1017.4
20260507013539 53 14 0.0 0.0 0.00 0.01 0.01 52 1017.3
20260507013011 53 14 0.0 0.0 0.00 0.01 0.01 50 1017.2
20260507012551 54 14 0.0 0.0 0.00 0.01 0.01 48 1017.2
20260507012028 54 14 0.0 0.0 0.00 0.01 0.01 48 1017.2
20260507011513 55 15 0.0 0.0 0.00 0.01 0.01 48 1017.1
20260507011045 55 14 0.0 0.0 0.00 0.01 0.01 47 1017.0
20260507010521 56 14 0.0 0.0 0.00 0.01 0.01 47 1017.1
20260507005537 56 14 0.0 3.0 0.00 0.01 0.01 43 1017.0
20260507005019 56 38 0.0 2.0 0.00 0.01 0.01 42 1017.0
20260507004555 56 359 0.0 4.0 0.00 0.01 0.01 42 1017.0
20260507004031 56 359 0.0 4.0 0.00 0.01 0.01 41 1017.0
20260507003507 57 51 0.0 3.0 0.00 0.01 0.01 42 1016.9
20260507003048 57 57 0.0 3.0 0.00 0.01 0.01 41 1016.9
20260507002525 57 336 0.0 5.0 0.00 0.01 0.01 40 1016.9
20260507002001 57 349 2.0 7.0 0.00 0.01 0.01 41 1016.8
20260507001541 57 17 2.0 7.0 0.00 0.01 0.01 41 1016.9
20260507001017 57 30 2.0 6.0 0.00 0.01 0.01 41 1016.9
20260507000601 57 33 2.0 4.0 0.00 0.01 0.01 41 1017.0
20260507000035 57 313 0.0 3.0 0.00 0.01 0.01 41 1016.9
20260506235513 58 326 0.0 2.0 0.00 0.01 0.01 42 1017.1
20260506235051 58 326 0.0 5.0 0.00 0.01 0.01 43 1017.1
20260506234527 58 37 1.0 6.0 0.00 0.01 0.01 42 1017.0
20260506234003 58 293 0.0 3.0 0.00 0.01 0.01 41 1017.0
20260506233544 58 342 0.0 7.0 0.00 0.01 0.01 41 1017.0
20260506233020 58 37 1.0 7.0 0.00 0.01 0.01 41 1016.8
20260506232601 58 357 0.0 6.0 0.00 0.01 0.01 42 1016.8
20260506232037 58 356 3.0 8.0 0.00 0.01 0.01 41 1016.8
20260506231514 58 34 0.0 8.0 0.00 0.01 0.01 43 1016.9
20260506231056 58 344 2.0 9.0 0.00 0.01 0.01 41 1016.8